Погода в Ральниках

Россия / Кировская область     56°38′59″N   50°07′22″E
темп.,
°C
ветер,
м/с
пор.,
м/с
влажн.,
%
обл.,
%
осадки,
мм/ч
давл.,
гПа
погр.,
м
6 мая, чт
чт600:00+3з5118316 0.0 1009463
03:00+2зюз499236 0.0 1011320
06:00+4з378321 0.0 1013392
09:00+6зюз3671100 0.0 1015615
12:00+10юз356412 0.0 1015807
15:00+14зюз5759100 0.0 10141436
18:00+14ю367356 0.0 1014218
21:00+10ююз4987100 0.0 1014170
7 мая, пт
пт700:00+9ю4108763 0.0 1015168
03:00+9ю41184100 0.0 1015245
06:00+11ю51375100 0.0 1015401
09:00+15ююз71258100 0.0 10151066
12:00+17ююз81250100 0.1 10141909
15:00+16ююз71253100 0.2 10141871
18:00+13юз61174100 1.4 1015797
21:00+9ссз1287100 2.1 1017126
8 мая, сб
сб800:00+9сз128774 0.0 101874
03:00+6ссв229156 0.0 101921
06:00+8всв248210 0.0 1020192
09:00+13в566519 0.0 1019785
12:00+15ююв4666100 0.1 10181109
15:00+17ююв595629 0.3 10161607
18:00+15ю37658 0.1 1015185
21:00+12ююв4117867 0.1 1015189
9 мая, вс
вс900:00+12ююв61472100 0.0 1015369
03:00+11ююв6147279 0.0 1014338
06:00+13ю61666100 0.0 1014601
09:00+15ю71462100 0.0 1015915
12:00+15ююв51368100 0.1 1015520
15:00+18ююз61158100 0.1 10151440
18:00+12сз2390100 0.1 1017169
21:00+9с4790100 0.4 1020315
10 мая, пн
пн1000:00+7сз3690100 0.7 1022337
03:00+7с4895100 3.3 1023450
06:00+8с3794100 1.9 1024396
09:00+7с4790100 2.9 1026534
12:00+9ссв2578100 1.3 1028650
15:00+13ссв345510 1.3 10271447
18:00+13с23645 0.0 102763
21:00+8с117570 0.0 102910